Hourly Data Report for June 14, 2020

TORONTO CITY
ONTARIO
Current Station Operator: ECCC - MSC

43°40'00.000" N
79°24'00.000" W
112.50 m
6158355
71508
XTO

Download Data

Hourly Data (June 2020)
Hourly Data Report for June 14, 2020
TIME
LST
Temp Definition
°C
Dew Point Definition
°C
Rel Hum Definition
%
Precip. Amount Definition
mm

Wind Dir Definition
10's deg

Wind Spd Definition
km/h
Visibility Definition
km
Stn Press Definition
kPa
Hmdx Definition


Wind Chill Definition


Weather Definition


00:00 12.1 5.6 64 0.0       101.51     LegendNANA
01:00 12.0 6.2 68 0.0       101.53     LegendNANA
02:00 11.2 5.9 70 0.0       101.55     LegendNANA
03:00 10.5 5.4 71 0.0       101.56     LegendNANA
04:00 10.7 5.4 70 0.0       101.61     LegendNANA
05:00 10.8 4.5 65 0.0       101.66     LegendNANA
06:00 11.1 3.6 60 0.0       101.72     LegendNANA
07:00 12.5 3.5 54 0.0       101.77     LegendNANA
08:00 14.3 3.5 48 0.0       101.81     LegendNANA
09:00 15.2 3.4 45 0.0       101.81     LegendNANA
10:00 16.2 1.7 38 0.0       101.81     LegendNANA
11:00 16.2 3.1 41 0.0       101.80     LegendNANA
12:00 16.4 2.5 39 0.0       101.76     LegendNANA
13:00 16.1 0.1 34 0.0       101.72     LegendNANA
14:00 17.1 0.5 32 0.2       101.68     LegendNANA
15:00 16.7 -0.4 31 0.0       101.66     LegendNANA
16:00 17.1 -2.0 27 0.3       101.67     LegendNANA
17:00 16.4 -1.9 28 0.3       101.64     LegendNANA
18:00 16.7 -1.0 30 0.0       101.65     LegendNANA
19:00 16.4 -1.2 30 0.0       101.64     LegendNANA
20:00 15.7 -1.0 32 0.0       101.60     LegendNANA
21:00 15.2 -1.1 33 0.0       101.63     LegendNANA
22:00 14.5 -0.1 37 0.0       101.64     LegendNANA
23:00 13.1 0.5 42 0.0       101.64     LegendNANA

Notes on Data Quality.

Legend

  • E = Estimated
  • M = Missing
  • NA = Not Available*
  • [empty] = Indicates an unobserved value
Date modified: